COSMOS 1953

Last updated on Sat Aug 15 2026 00:02:07 GMT+0000 (Coordinated Universal Time)

1 19210U 88050A 26226.60525598 .00004204 00000+0 14052-3 0 9996 2 19210 82.5098 359.0858 0009172 286.7200 73.3034 15.30675776 61924
UTC large
Height (km)
Speed (km/s)
/
Latitude / Longitude
Inclination (degrees)
Orbital Period (minutes)
Azimuth
Elevation
Range (km)
Doppler Factor

Next 0 passes for location: London (51.5072 / 0.1276)

No passes found over London.
COSMOS 1953